FW0693 Weather Reports


time (UTC)temp
F
wind
direction
speed
knots
gust
knots
rain 1hr
in
rain 24hr
in
rain mn
in
humidity
%
barometer
mb
20260506203055 48 323 0.9 2.6 0.00 0.39 0.31 87 1010.8
20260506201535 49 345 1.7 3.5 0.00 0.39 0.31 87 1010.7
20260506200058 50 337 2.6 5.2 0.00 0.39 0.31 87 1010.6
20260506194531 50 304 1.7 4.3 0.00 0.46 0.31 87 1010.4
20260506193102 51 360 1.7 4.3 0.00 0.46 0.31 88 1010.2
20260506191530 51 292 1.7 3.5 0.00 0.46 0.31 87 1010.2
20260506190100 51 55 0.9 1.7 0.00 0.46 0.31 87 1010.1
20260506184525 51 55 0.0 0.0 0.00 0.52 0.31 87 1010.1
20260506183106 51 55 0.0 0.0 0.00 0.52 0.31 86 1010.0
20260506181527 52 55 0.0 0.0 0.00 0.52 0.31 86 1009.7
20260506180055 52 55 0.0 0.9 0.00 0.52 0.31 86 1009.6
20260506174517 52 55 0.0 2.6 0.00 0.54 0.31 86 1009.5
20260506173050 53 72 0.9 4.3 0.00 0.54 0.31 86 1009.2
20260506171518 53 321 1.7 2.6 0.00 0.54 0.31 85 1009.0
20260506164507 53 287 0.9 3.5 0.00 0.55 0.31 84 1008.8
20260506163031 53 286 1.7 4.3 0.00 0.55 0.31 83 1008.9
20260506161555 53 288 1.7 7.0 0.00 0.55 0.31 82 1008.9
20260506160019 54 292 3.5 7.8 0.00 0.55 0.31 81 1008.9
20260506154549 54 271 2.6 7.0 0.00 0.55 0.31 82 1008.8
20260506153012 54 251 2.6 5.2 0.00 0.55 0.31 83 1008.7
20260506151542 54 288 3.5 5.2 0.00 0.55 0.31 83 1008.8
20260506150005 53 5 0.0 1.7 0.00 0.55 0.31 83 1008.7
20260506144540 52 9 0.0 1.7 0.00 0.55 0.31 84 1008.8
20260506143057 52 10 0.9 3.5 0.00 0.55 0.31 84 1008.8
20260506141529 52 28 2.6 5.2 0.00 0.55 0.31 83 1008.8
20260506140014 52 360 5.2 10.4 0.00 0.55 0.31 82 1008.8
20260506134556 52 15 3.5 7.8 0.00 0.55 0.31 83 1008.7
20260506133030 53 355 1.7 9.6 0.00 0.55 0.31 83 1008.8
20260506131512 53 83 5.2 8.7 0.00 0.55 0.31 82 1008.7
20260506130050 54 13 6.1 9.6 0.00 0.55 0.31 83 1008.6
20260506124523 54 12 5.2 13.0 0.00 0.55 0.31 84 1008.5
20260506123053 53 28 8.7 13.9 0.00 0.55 0.31 85 1008.4
20260506121527 53 360 6.1 10.4 0.00 0.55 0.31 87 1008.3
20260506120058 51 9 3.5 10.4 0.00 0.55 0.31 89 1008.2
20260506114520 51 355 5.2 11.3 0.00 0.55 0.31 89 1008.1
20260506113056 51 5 5.2 10.4 0.00 0.55 0.31 90 1008.0
20260506111512 51 344 3.5 9.6 0.00 0.55 0.31 91 1007.8
20260506110032 51 310 3.5 8.7 0.00 0.55 0.31 92 1007.8
20260506104559 50 338 6.1 9.6 0.00 0.55 0.31 92 1007.9
20260506103018 49 14 4.3 9.6 0.00 0.55 0.31 92 1007.9
20260506101540 49 348 5.2 7.8 0.00 0.55 0.31 92 1007.9
20260506100104 49 309 2.6 7.8 0.00 0.55 0.31 92 1007.8
20260506094524 49 9 2.6 8.7 0.01 0.55 0.31 92 1007.8
20260506093052 49 360 3.5 7.8 0.01 0.55 0.31 92 1007.6
20260506091534 48 347 1.7 5.2 0.01 0.55 0.31 92 1007.6
20260506090057 48 307 2.6 7.0 0.01 0.55 0.31 92 1007.5
20260506084510 48 339 1.7 7.8 0.00 0.54 0.31 92 1007.5
20260506083037 48 305 2.6 7.0 0.00 0.54 0.31 92 1007.3
20260506081504 48 296 2.6 5.2 0.00 0.54 0.31 92 1007.1
20260506073050 47 322 1.7 7.0 0.02 0.54 0.31 92 1006.9
20260506071511 47 317 3.5 8.7 0.03 0.54 0.31 92 1006.8
20260506061555 47 333 3.5 7.8 0.04 0.51 0.28 92 1006.3
20260506050111 47 304 3.5 8.7 0.05 0.46 0.22 92 1006.2
20260506044551 47 348 5.2 8.7 0.06 0.44 0.20 92 1006.3
20260506043028 47 5 4.3 8.7 0.05 0.43 0.20 92 1006.2
20260506041540 47 355 5.2 9.6 0.04 0.42 0.18 92 1006.2
20260506040004 47 328 3.5 7.0 0.03 0.40 0.17 92 1006.2
20260506034529 47 5 4.3 7.8 0.02 0.39 0.15 92 1006.2
20260506033057 48 338 2.6 7.0 0.02 0.39 0.15 92 1006.3
20260506031544 48 15 4.3 8.7 0.02 0.38 0.14 92 1006.3
20260506024540 48 323 3.5 8.7 0.02 0.36 0.13 92 1006.3
20260506023052 48 339 4.3 8.7 0.02 0.36 0.13 92 1006.3
20260506021521 48 312 4.3 8.7 0.02 0.36 0.13 92 1006.3
20260506020131 48 5 6.1 9.6 0.02 0.35 0.12 92 1006.3
20260506014522 49 15 2.6 7.0 0.02 0.35 0.11 92 1006.4
20260506013054 49 346 1.7 7.0 0.03 0.34 0.10 92 1006.5
20260506011506 49 38 2.6 7.8 0.04 0.34 0.10 92 1006.5
20260506010009 49 5 2.6 7.0 0.04 0.33 0.09 92 1006.5
20260506004536 49 337 4.3 7.8 0.03 0.32 0.09 92 1006.5
20260506003001 49 322 2.6 5.2 0.02 0.31 0.07 92 1006.6
20260506001527 49 355 2.6 5.2 0.03 0.30 0.06 92 1006.8
20260506000007 49 306 1.7 7.0 0.02 0.28 0.06 92 1006.9
20260505234551 49 330 1.7 7.0 0.03 0.28 0.06 92 1007.0
20260505233002 49 344 3.5 5.2 0.03 0.28 0.05 92 1006.9
20260505231530 49 5 2.6 5.2 0.02 0.27 0.03 91 1007.0
20260505230005 49 336 2.6 4.3 0.03 0.27 0.03 92 1007.1
20260505224538 49 27 2.6 4.3 0.02 0.26 0.02 92 1007.2
20260505223030 50 18 2.6 4.3 0.02 0.25 0.02 92 1007.2
20260505221513 50 30 1.7 7.0 0.02 0.24 0.01 92 1007.3
20260505220052 50 5 3.5 8.7 0.02 0.24 0.00 91 1007.3
20260505214601 50 342 2.6 7.8 0.02 0.24 0.23 91 1007.4
20260505213015 50 36 3.5 7.8 0.04 0.23 0.22 91 1007.5
20260505211608 50 9 3.5 7.8 0.06 0.23 0.22 91 1007.5
20260505210038 50 348 2.6 7.0 0.06 0.22 0.21 91 1007.6
20260505204524 50 23 4.3 7.8 0.06 0.21 0.20 91 1007.6